Time,TemperatureF,DewpointF,PressureIn,WindDirection,WindDirectionDegrees,WindSpeedMPH,WindSpeedGustMPH,Humidity,HourlyPrecipIn,Conditions,Clouds,dailyrainin,SoftwareType,DateUTC
2013-02-10 00:01:00,29.0,24.0,30.31,ESE,104,3.0,6.0,82,0.00,,,0.00,,2013-02-10 05:01:00,
2013-02-10 00:11:00,29.0,24.0,30.31,ESE,104,3.0,6.0,82,0.00,,,0.00,,2013-02-10 05:11:00,
2013-02-10 00:22:00,28.0,24.0,30.30,ESE,103,5.0,6.0,83,0.00,,,0.00,,2013-02-10 05:22:00,
2013-02-10 00:32:00,28.0,24.0,30.30,ESE,103,4.0,7.0,83,0.00,,,0.00,,2013-02-10 05:32:00,
2013-02-10 00:41:00,28.0,24.0,30.30,ESE,103,4.0,7.0,83,0.00,,,0.00,,2013-02-10 05:41:00,
2013-02-10 00:52:00,27.0,23.0,30.29,ESE,103,4.0,6.0,83,0.00,,,0.00,,2013-02-10 05:52:00,
2013-02-10 01:02:00,28.0,24.0,30.29,ESE,105,6.0,8.0,83,0.00,,,0.00,,2013-02-10 06:02:00,
2013-02-10 01:11:00,28.0,24.0,30.29,ESE,105,6.0,8.0,83,0.00,,,0.00,,2013-02-10 06:11:00,
2013-02-10 01:21:00,29.0,24.0,30.27,ESE,102,7.0,11.0,82,0.00,,,0.00,,2013-02-10 06:21:00,
2013-02-10 01:32:00,29.0,24.0,30.27,ESE,104,6.0,10.0,81,0.00,,,0.00,,2013-02-10 06:32:00,
2013-02-10 01:42:00,29.0,24.0,30.27,ESE,104,6.0,10.0,81,0.00,,,0.00,,2013-02-10 06:42:00,
2013-02-10 01:52:00,29.0,24.0,30.26,ESE,110,6.0,13.0,80,0.00,,,0.00,,2013-02-10 06:52:00,
2013-02-10 02:01:00,29.0,23.0,30.25,ESE,118,5.0,10.0,79,0.00,,,0.00,,2013-02-10 07:01:00,
2013-02-10 02:11:00,29.0,23.0,30.25,ESE,118,5.0,10.0,79,0.00,,,0.00,,2013-02-10 07:11:00,
2013-02-10 02:21:00,29.0,23.0,30.26,ESE,121,5.0,11.0,79,0.00,,,0.00,,2013-02-10 07:21:00,
2013-02-10 02:31:00,29.0,24.0,30.25,ESE,103,7.0,10.0,80,0.00,,,0.00,,2013-02-10 07:31:00,
2013-02-10 02:42:00,29.0,24.0,30.25,ESE,103,7.0,10.0,80,0.00,,,0.00,,2013-02-10 07:42:00,
2013-02-10 02:51:00,29.0,23.0,30.24,ESE,113,9.0,12.0,79,0.00,,,0.00,,2013-02-10 07:51:00,
2013-02-10 03:01:00,29.0,23.0,30.24,ESE,113,9.0,12.0,79,0.00,,,0.00,,2013-02-10 08:01:00,
2013-02-10 03:11:00,29.0,23.0,30.24,ESE,113,9.0,12.0,79,0.00,,,0.00,,2013-02-10 08:11:00,
2013-02-10 03:21:00,30.0,24.0,30.24,ESE,111,11.0,14.0,78,0.00,,,0.00,,2013-02-10 08:21:00,
2013-02-10 03:32:00,30.0,24.0,30.24,ESE,111,11.0,14.0,78,0.00,,,0.00,,2013-02-10 08:32:00,
2013-02-10 03:43:00,30.0,24.0,30.24,ESE,111,11.0,14.0,78,0.00,,,0.00,,2013-02-10 08:43:00,
2013-02-10 03:52:00,31.0,25.0,30.22,East,101,10.0,12.0,79,0.00,,,0.00,,2013-02-10 08:52:00,
2013-02-10 04:02:00,31.0,25.0,30.22,ESE,110,9.0,14.0,78,0.00,,,0.00,,2013-02-10 09:02:00,
2013-02-10 04:11:00,31.0,25.0,30.22,ESE,110,9.0,14.0,78,0.00,,,0.00,,2013-02-10 09:11:00,
2013-02-10 04:21:00,31.0,25.0,30.21,ESE,117,9.0,12.0,78,0.00,,,0.00,,2013-02-10 09:21:00,
2013-02-10 04:32:00,31.0,25.0,30.21,ESE,117,9.0,12.0,78,0.00,,,0.00,,2013-02-10 09:32:00,
2013-02-10 04:42:00,31.0,25.0,30.21,ESE,117,9.0,12.0,78,0.00,,,0.00,,2013-02-10 09:42:00,
2013-02-10 04:52:00,31.0,25.0,30.21,ESE,115,8.0,12.0,77,0.00,,,0.00,,2013-02-10 09:52:00,
2013-02-10 05:01:00,31.0,25.0,30.21,ESE,115,8.0,12.0,77,0.00,,,0.00,,2013-02-10 10:01:00,
2013-02-10 05:11:00,32.0,25.0,30.22,SE,128,5.0,23.0,74,0.00,,,0.00,,2013-02-10 10:11:00,
2013-02-10 05:21:00,32.0,25.0,30.22,SE,128,5.0,23.0,74,0.00,,,0.00,,2013-02-10 10:21:00,
2013-02-10 05:31:00,32.0,25.0,30.22,ESE,115,7.0,10.0,75,0.00,,,0.00,,2013-02-10 10:31:00,
2013-02-10 05:42:00,32.0,25.0,30.22,ESE,115,7.0,10.0,75,0.00,,,0.00,,2013-02-10 10:42:00,
2013-02-10 05:51:00,32.0,25.0,30.22,ESE,123,5.0,10.0,76,0.00,,,0.00,,2013-02-10 10:51:00,
2013-02-10 06:01:00,32.0,25.0,30.22,ESE,118,6.0,10.0,76,0.00,,,0.00,,2013-02-10 11:01:00,
2013-02-10 06:11:00,32.0,25.0,30.22,ESE,118,6.0,10.0,76,0.00,,,0.00,,2013-02-10 11:11:00,
2013-02-10 06:22:00,32.0,25.0,30.22,ESE,118,6.0,10.0,76,0.00,,,0.00,,2013-02-10 11:22:00,
2013-02-10 06:32:00,32.0,26.0,30.20,ESE,109,7.0,11.0,78,0.00,,,0.00,,2013-02-10 11:32:00,
2013-02-10 06:42:00,32.0,26.0,30.20,ESE,109,7.0,11.0,78,0.00,,,0.00,,2013-02-10 11:42:00,
2013-02-10 06:52:00,33.0,26.0,30.19,ESE,109,11.0,14.0,75,0.00,,,0.00,,2013-02-10 11:52:00,
2013-02-10 07:02:00,33.0,26.0,30.19,ESE,109,11.0,14.0,75,0.00,,,0.00,,2013-02-10 12:02:00,
2013-02-10 07:12:00,33.0,26.0,30.19,ESE,109,11.0,14.0,75,0.00,,,0.00,,2013-02-10 12:12:00,
2013-02-10 07:21:00,33.0,26.0,30.16,East,89,5.0,13.0,74,0.00,,,0.00,,2013-02-10 12:21:00,
2013-02-10 07:32:00,33.0,26.0,30.16,East,89,5.0,13.0,74,0.00,,,0.00,,2013-02-10 12:32:00,
2013-02-10 07:42:00,33.0,26.0,30.16,East,89,5.0,13.0,74,0.00,,,0.00,,2013-02-10 12:42:00,
2013-02-10 07:52:00,34.0,26.0,30.19,SE,139,5.0,11.0,73,0.00,,,0.00,,2013-02-10 12:52:00,
2013-02-10 08:02:00,34.0,26.0,30.19,ESE,118,4.0,9.0,73,0.00,,,0.00,,2013-02-10 13:02:00,
2013-02-10 08:12:00,34.0,26.0,30.19,ESE,118,4.0,9.0,73,0.00,,,0.00,,2013-02-10 13:12:00,
2013-02-10 08:21:00,34.0,27.0,30.18,SE,125,10.0,21.0,75,0.00,,,0.00,,2013-02-10 13:21:00,
2013-02-10 08:31:00,34.0,27.0,30.18,SE,125,10.0,21.0,75,0.00,,,0.00,,2013-02-10 13:31:00,
2013-02-10 08:41:00,34.0,27.0,30.18,SE,125,10.0,21.0,75,0.00,,,0.00,,2013-02-10 13:41:00,
2013-02-10 08:52:00,34.0,26.0,30.17,SE,132,10.0,17.0,72,0.00,,,0.00,,2013-02-10 13:52:00,
2013-02-10 09:02:00,34.0,26.0,30.16,SE,126,11.0,15.0,72,0.00,,,0.00,,2013-02-10 14:02:00,
2013-02-10 09:11:00,34.0,26.0,30.16,SE,126,11.0,15.0,72,0.00,,,0.00,,2013-02-10 14:11:00,
2013-02-10 09:21:00,35.0,27.0,30.13,ESE,117,11.0,17.0,73,0.00,,,0.00,,2013-02-10 14:21:00,
2013-02-10 09:32:00,35.0,27.0,30.13,ESE,117,11.0,17.0,73,0.00,,,0.00,,2013-02-10 14:32:00,
2013-02-10 09:41:00,35.0,27.0,30.13,ESE,117,11.0,17.0,73,0.00,,,0.00,,2013-02-10 14:41:00,
2013-02-10 09:52:00,35.0,27.0,30.13,ESE,117,11.0,17.0,73,0.00,,,0.00,,2013-02-10 14:52:00,
2013-02-10 10:02:00,38.0,29.0,30.14,SE,138,9.0,14.0,70,0.00,,,0.00,,2013-02-10 15:02:00,
2013-02-10 10:12:00,38.0,29.0,30.14,SE,138,9.0,14.0,70,0.00,,,0.00,,2013-02-10 15:12:00,
2013-02-10 10:22:00,38.0,29.0,30.15,SE,134,10.0,14.0,69,0.00,,,0.00,,2013-02-10 15:22:00,
2013-02-10 10:32:00,39.0,29.0,30.14,ESE,111,14.0,30.0,68,0.00,,,0.00,,2013-02-10 15:32:00,
2013-02-10 10:42:00,39.0,29.0,30.14,ESE,111,14.0,30.0,68,0.00,,,0.00,,2013-02-10 15:42:00,
2013-02-10 10:52:00,39.0,29.0,30.14,SE,125,12.0,15.0,68,0.00,,,0.00,,2013-02-10 15:52:00,
2013-02-10 11:02:00,39.0,29.0,30.14,SE,125,12.0,15.0,68,0.00,,,0.00,,2013-02-10 16:02:00,
2013-02-10 11:12:00,40.0,31.0,30.13,ESE,121,8.0,13.0,69,0.00,,,0.00,,2013-02-10 16:12:00,
2013-02-10 11:22:00,40.0,31.0,30.13,ESE,121,8.0,13.0,69,0.00,,,0.00,,2013-02-10 16:22:00,
2013-02-10 11:32:00,40.0,31.0,30.13,SE,135,7.0,12.0,70,0.00,,,0.00,,2013-02-10 16:32:00,
2013-02-10 11:42:00,41.0,32.0,30.11,ESE,103,8.0,13.0,70,0.00,,,0.00,,2013-02-10 16:42:00,
2013-02-10 11:52:00,41.0,32.0,30.11,ESE,103,8.0,13.0,70,0.00,,,0.00,,2013-02-10 16:52:00,
2013-02-10 12:02:00,42.0,33.0,30.11,ESE,123,10.0,14.0,70,0.00,,,0.00,,2013-02-10 17:02:00,
2013-02-10 12:22:00,41.0,33.0,30.09,ESE,105,11.0,15.0,72,0.00,,,0.00,,2013-02-10 17:22:00,
2013-02-10 12:32:00,41.0,33.0,30.08,ESE,115,10.0,14.0,72,0.00,,,0.00,,2013-02-10 17:32:00,
2013-02-10 12:42:00,42.0,34.0,30.07,SE,126,8.0,17.0,72,0.00,,,0.00,,2013-02-10 17:42:00,
2013-02-10 12:52:00,42.0,34.0,30.07,SE,126,8.0,17.0,72,0.00,,,0.00,,2013-02-10 17:52:00,
2013-02-10 13:02:00,42.0,33.0,30.06,ESE,107,10.0,18.0,71,0.00,,,0.00,,2013-02-10 18:02:00,
2013-02-10 13:12:00,44.0,36.0,30.03,SE,128,10.0,19.0,72,0.00,,,0.00,,2013-02-10 18:12:00,
2013-02-10 13:22:00,44.0,36.0,30.03,SE,128,10.0,19.0,72,0.00,,,0.00,,2013-02-10 18:22:00,
2013-02-10 13:32:00,44.0,36.0,30.03,SE,125,12.0,16.0,72,0.00,,,0.00,,2013-02-10 18:32:00,
2013-02-10 13:42:00,44.0,36.0,30.03,SE,125,12.0,16.0,72,0.00,,,0.00,,2013-02-10 18:42:00,
2013-02-10 13:52:00,44.0,36.0,30.01,ESE,103,9.0,13.0,73,0.00,,,0.00,,2013-02-10 18:52:00,
2013-02-10 14:02:00,45.0,37.0,30.01,ESE,120,8.0,13.0,73,0.00,,,0.00,,2013-02-10 19:02:00,
2013-02-10 14:12:00,45.0,37.0,30.00,ESE,106,9.0,13.0,74,0.00,,,0.00,,2013-02-10 19:12:00,
2013-02-10 14:22:00,45.0,37.0,30.00,ESE,106,9.0,13.0,74,0.00,,,0.00,,2013-02-10 19:22:00,
2013-02-10 14:32:00,45.0,37.0,29.99,ESE,110,11.0,14.0,73,0.00,,,0.00,,2013-02-10 19:32:00,
2013-02-10 14:42:00,46.0,37.0,29.97,SSE,148,12.0,20.0,70,0.00,,,0.00,,2013-02-10 19:42:00,
2013-02-10 14:52:00,46.0,37.0,29.97,SSE,148,12.0,20.0,70,0.00,,,0.00,,2013-02-10 19:52:00,
2013-02-10 15:02:00,46.0,36.0,29.98,SE,125,13.0,18.0,68,0.00,,,0.00,,2013-02-10 20:02:00,
2013-02-10 15:11:00,46.0,36.0,29.98,SE,125,13.0,18.0,68,0.00,,,0.00,,2013-02-10 20:11:00,
2013-02-10 15:22:00,46.0,36.0,29.97,SE,124,10.0,16.0,68,0.00,,,0.00,,2013-02-10 20:22:00,
2013-02-10 15:32:00,46.0,36.0,29.97,SE,130,9.0,15.0,68,0.00,,,0.00,,2013-02-10 20:32:00,
2013-02-10 15:42:00,45.0,36.0,29.96,SE,133,9.0,16.0,70,0.00,,,0.00,,2013-02-10 20:42:00,
2013-02-10 15:52:00,45.0,36.0,29.96,SE,133,9.0,16.0,70,0.00,,,0.00,,2013-02-10 20:52:00,
2013-02-10 16:02:00,45.0,36.0,29.96,SE,133,9.0,16.0,70,0.00,,,0.00,,2013-02-10 21:02:00,
2013-02-10 16:11:00,45.0,36.0,29.96,SE,133,9.0,16.0,70,0.00,,,0.00,,2013-02-10 21:11:00,
2013-02-10 16:22:00,45.0,36.0,29.94,ESE,105,13.0,18.0,70,0.00,,,0.00,,2013-02-10 21:22:00,
2013-02-10 16:32:00,45.0,35.0,29.92,ESE,105,15.0,18.0,69,0.00,,,0.00,,2013-02-10 21:32:00,
2013-02-10 16:42:00,45.0,35.0,29.91,ESE,114,15.0,19.0,69,0.00,,,0.00,,2013-02-10 21:42:00,
2013-02-10 16:52:00,45.0,35.0,29.91,ESE,114,15.0,19.0,69,0.00,,,0.00,,2013-02-10 21:52:00,
2013-02-10 17:02:00,45.0,35.0,29.90,ESE,107,15.0,20.0,69,0.00,,,0.00,,2013-02-10 22:02:00,
2013-02-10 17:11:00,45.0,35.0,29.90,ESE,107,15.0,20.0,69,0.00,,,0.00,,2013-02-10 22:11:00,
2013-02-10 17:22:00,45.0,35.0,29.90,ESE,107,15.0,20.0,69,0.00,,,0.00,,2013-02-10 22:22:00,
2013-02-10 17:32:00,45.0,35.0,29.88,East,99,15.0,23.0,68,0.00,,,0.00,,2013-02-10 22:32:00,
2013-02-10 17:42:00,45.0,35.0,29.86,ESE,115,20.0,25.0,68,0.00,,,0.00,,2013-02-10 22:42:00,
2013-02-10 17:53:00,45.0,35.0,29.86,ESE,115,20.0,25.0,68,0.00,,,0.00,,2013-02-10 22:53:00,
2013-02-10 18:02:00,44.0,35.0,29.85,ESE,107,18.0,26.0,71,0.00,,,0.00,,2013-02-10 23:02:00,
2013-02-10 18:11:00,44.0,35.0,29.85,ESE,107,18.0,26.0,71,0.00,,,0.00,,2013-02-10 23:11:00,
2013-02-10 18:22:00,44.0,36.0,29.87,ESE,103,14.0,22.0,73,0.00,,,0.00,,2013-02-10 23:22:00,
2013-02-10 18:32:00,44.0,36.0,29.87,ESE,103,14.0,22.0,73,0.00,,,0.00,,2013-02-10 23:32:00,
2013-02-10 18:42:00,44.0,36.0,29.85,ESE,113,17.0,21.0,72,0.00,,,0.00,,2013-02-10 23:42:00,
2013-02-10 18:52:00,44.0,36.0,29.85,ESE,113,17.0,21.0,72,0.00,,,0.00,,2013-02-10 23:52:00,
2013-02-10 19:02:00,44.0,34.0,29.84,East,94,18.0,25.0,69,0.00,,,0.00,,2013-02-11 00:02:00,
2013-02-10 19:11:00,44.0,34.0,29.84,East,94,18.0,25.0,69,0.00,,,0.00,,2013-02-11 00:11:00,
2013-02-10 19:22:00,44.0,34.0,29.84,East,94,18.0,25.0,69,0.00,,,0.00,,2013-02-11 00:22:00,
2013-02-10 19:32:00,45.0,35.0,29.84,ESE,113,18.0,23.0,67,0.00,,,0.00,,2013-02-11 00:32:00,
2013-02-10 19:42:00,45.0,35.0,29.84,ESE,113,18.0,23.0,67,0.00,,,0.00,,2013-02-11 00:42:00,
2013-02-10 19:52:00,45.0,35.0,29.84,ESE,113,18.0,23.0,67,0.00,,,0.00,,2013-02-11 00:52:00,
2013-02-10 20:01:00,44.0,35.0,29.82,ESE,113,14.0,22.0,70,0.00,,,0.00,,2013-02-11 01:01:00,
2013-02-10 20:11:00,44.0,35.0,29.82,ESE,113,14.0,22.0,70,0.00,,,0.00,,2013-02-11 01:11:00,
2013-02-10 20:21:00,45.0,37.0,29.81,SE,138,14.0,20.0,72,0.00,,,0.00,,2013-02-11 01:21:00,
2013-02-10 20:32:00,45.0,37.0,29.81,SE,138,14.0,20.0,72,0.00,,,0.00,,2013-02-11 01:32:00,
2013-02-10 20:42:00,46.0,38.0,29.81,SSE,153,14.0,22.0,73,0.00,,,0.00,,2013-02-11 01:42:00,
2013-02-10 20:52:00,46.0,38.0,29.81,SSE,153,14.0,22.0,73,0.00,,,0.00,,2013-02-11 01:52:00,
2013-02-10 21:01:00,46.0,39.0,29.82,SE,132,15.0,20.0,75,0.00,,,0.00,,2013-02-11 02:01:00,
2013-02-10 21:11:00,46.0,39.0,29.82,SE,132,15.0,20.0,75,0.00,,,0.00,,2013-02-11 02:11:00,
2013-02-10 21:21:00,47.0,41.0,29.81,SE,143,12.0,19.0,78,0.00,,,0.00,,2013-02-11 02:21:00,
2013-02-10 21:32:00,48.0,42.0,29.80,SE,140,14.0,22.0,79,0.00,,,0.00,,2013-02-11 02:32:00,
2013-02-10 21:42:00,48.0,42.0,29.80,SE,141,14.0,23.0,81,0.00,,,0.00,,2013-02-11 02:42:00,
2013-02-10 21:52:00,48.0,42.0,29.80,SE,141,14.0,23.0,81,0.00,,,0.00,,2013-02-11 02:52:00,
2013-02-10 22:02:00,48.0,43.0,29.80,SSE,156,14.0,28.0,82,0.00,,,0.00,,2013-02-11 03:02:00,
2013-02-10 22:11:00,48.0,43.0,29.80,SSE,156,9.0,23.0,82,0.00,,,0.00,,2013-02-11 03:11:00,
2013-02-10 22:21:00,48.0,43.0,29.80,SSE,156,9.0,23.0,82,0.00,,,0.00,,2013-02-11 03:21:00,
2013-02-10 22:32:00,48.0,43.0,29.80,SSE,156,9.0,23.0,82,0.00,,,0.00,,2013-02-11 03:32:00,
2013-02-10 22:42:00,48.0,44.0,29.80,SSE,151,12.0,21.0,85,0.00,,,0.00,,2013-02-11 03:42:00,
2013-02-10 22:52:00,48.0,44.0,29.80,SSE,151,12.0,21.0,85,0.00,,,0.00,,2013-02-11 03:52:00,
2013-02-10 23:01:00,48.0,44.0,29.80,SSE,151,12.0,21.0,85,0.00,,,0.00,,2013-02-11 04:01:00,
2013-02-10 23:11:00,48.0,44.0,29.80,SSE,151,12.0,21.0,85,0.00,,,0.00,,2013-02-11 04:11:00,
2013-02-10 23:22:00,47.0,44.0,29.78,SSE,157,11.0,21.0,89,0.00,,,0.00,,2013-02-11 04:22:00,
2013-02-10 23:32:00,47.0,44.0,29.78,SE,136,10.0,22.0,89,0.00,,,0.00,,2013-02-11 04:32:00,
2013-02-10 23:42:00,47.0,44.0,29.78,SSE,165,9.0,20.0,89,0.00,,,0.00,,2013-02-11 04:42:00,
2013-02-10 23:52:00,47.0,44.0,29.78,SSE,165,9.0,20.0,89,0.00,,,0.00,,2013-02-11 04:52:00,